Location: Potomac Astrometric Observatory
(39.0475°N, 77.2064°W)
Time: 19:39:19
(UTC-05:00)

ISS - Visible Passes

Search period start: 17 February 2019 00:00
Search period end: 27 February 2019 00:00
Orbit: 403 x 411 km, 51.6° (Epoch: 18 February)

Date Brightness Start Highest point End Pass type
(mag) Time Alt. Az. Time Alt. Az. Time Alt. Az.
20 Feb -0.5 06:06:59 10° SSE 06:08:06 11° SE 06:09:14 10° ESE visible
22 Feb -1.8 05:58:30 10° SSW 06:01:22 29° SE 06:04:16 10° ENE visible
23 Feb -0.9 05:08:03 10° SSE 05:10:03 15° SE 05:12:04 10° E visible
24 Feb -3.8 05:51:42 11° SW 05:54:45 83° SE 05:58:02 10° NE visible
25 Feb -2.8 05:02:53 37° SSE 05:03:18 40° SE 05:06:24 10° ENE visible
26 Feb -0.5 04:13:51 13° E 04:13:51 13° E 04:14:25 10° E visible
26 Feb -3.2 05:46:35 22° W 05:48:15 39° NNW 05:51:22 10° NE visible
